SCP
0 0 0 0 0 0 0 0 0 0 0 0 0 0 0 0 0 0 0 0 0 0 0 0 0 0 0 0 0 0 0 0 0 0 0 0 0 0 0 0 0 0 0 0 0 0 0 0 0
0 0 0 0 0 0 0 0 0 0 0 0 0 0 0 0 0 0 0 0 0 0 0 0 0 0 0 0 0 0 0 0 0 0 0 0 0 0 0 0 0 0 0 0 0 0 0 0 0
0 0 0 0 0 0 0 0 0 0 0 0 0 0 0 0 0 0 0 0 0 0 0 0 0 0 0 0 0 0 0 0 0 0 0 0 0 0 0 0 0 0 0 0 0 0 0 0 0
0 0 0 0 0 0 0 0 0 0 0 0 0 0 0 0 0 0 0 0 0 0 0 0 0 0 0 0 0 0 0 0 0 0 0 0 0 0 0 0 0 0 0 0 0 0 0 0 0
0 0 0 0 0 0 0 0 0 0 0 0 0 0 0 0 0 0 0 0 0 0 0 0 0 0 0 0 0 0 0 0 0 0 0 0 0 0 0 0 0 0 0 0 0 0 0 0 0
0 0 0 0 0 0 0 0 0 0 0 0 0 0 0 1 1 0 0 0 0 0 0 0 0 0 0 0 0 0 0 0 0 0 0 0 0 0 0 0 0 0 0 0 0 0 0 0 0
0 0 0 0 0 0 0 0 0 0 0 0 0 0 1 1 1 1 0 0 0 0 0 0 0 0 0 0 0 0 0 0 0 0 0 0 0 0 0 0 0 0 0 0 0 0 0 0 0
0 0 0 0 0 0 0 0 0 0 0 0 0 0 1 1 1 1 0 0 0 0 0 0 0 0 0 0 0 0 0 0 0 0 0 0 0 0 0 0 0 0 0 0 0 0 0 0 0
0 0 0 0 0 0 0 0 0 0 0 0 0 1 1 1 1 1 1 1 0 0 0 0 0 0 0 0 0 0 0 0 0 0 0 0 0 0 0 0 0 0 0 0 0 0 0 0 0
0 -0 0 0 0 0 0 0 0 0 0 0 0 1 1 1 1 1 1 1 1 0 0 0 0 0 0 0 0 0 0 0 0 0 0 0 0 0 0 0 0 0 0 0 0 0 0 0 0
-0 -0 0 0 0 0 0 0 0 0 0 0 1 1 1 1 1 1 1 1 1 0 0 0 0 0 0 0 0 0 0 0 0 0 0 0 0 0 0 0 0 0 0 0 0 0 0 0 0
0 0 0 0 0 0 0 0 0 0 0 0 0 1 1 1 1 1 1 1 1 0 0 0 0 0 0 0 0 0 0 0 0 0 0 0 0 0 0 0 0 0 0 0 0 0 0 0 0
0 0 0 0 0 0 0 0 0 0 0 0 0 1 1 1 1 1 1 1 1 0 0 0 0 0 0 0 0 0 0 0 0 0 0 0 0 0 0 0 0 0 0 0 0 0 0 0 0
0 0 0 0 0 0 0 0 0 0 0 0 0 0 1 1 1 1 1 1 1 1 0 0 0 1 0 0 0 0 0 0 0 0 0 0 0 0 0 0 0 0 0 0 0 0 0 0 0
0 0 0 0 0 0 0 0 0 0 0 0 0 0 0 1 1 1 1 1 1 1 1 1 1 1 1 0 0 0 0 0 0 0 0 0 0 0 0 0 0 0 0 0 0 0 0 0 0
0 0 0 0 0 0 0 0 0 0 0 0 0 0 0 0 1 1 1 1 1 1 1 1 1 1 1 0 0 0 0 0 0 0 0 0 0 0 0 0 0 0 0 0 0 0 0 0 0
0 0 0 0 0 0 0 0 0 0 0 0 0 0 0 0 0 1 1 1 1 1 1 1 1 1 1 1 1 0 0 0 0 0 0 0 0 0 0 0 0 0 0 0 0 0 0 0 0
0 0 0 0 0 0 0 0 0 0 0 0 0 0 0 0 0 1 1 1 1 1 1 1 1 1 1 1 1 1 0 0 0 0 0 0 0 0 0 0 0 0 0 0 0 0 0 0 0
0 0 0 0 0 0 0 0 0 0 0 0 0 0 0 0 0 0 1 1 1 1 1 1 1 1 1 1 1 1 0 0 0 0 0 0 0 0 0 0 0 0 0 0 0 0 0 0 0
0 0 0 0 0 0 0 0 0 0 0 0 0 0 0 0 0 0 0 1 1 1 1 1 1 1 1 1 0 0 0 0 0 0 0 0 0 0 0 0 0 0 0 0 0 0 0 0 0
0 0 0 0 0 0 0 0 0 0 0 0 0 0 0 0 0 0 0 0 1 1 1 1 1 1 0 0 0 0 0 0 0 0 0 0 0 0 0 0 0 0 0 0 0 0 0 0 0
0 0 0 0 0 0 0 0 0 0 0 0 0 0 0 0 0 0 0 0 0 0 1 1 1 1 0 0 0 0 0 0 0 0 0 0 0 0 0 0 0 0 0 0 0 0 0 0 0
0 0 0 0 0 0 0 0 0 0 0 0 0 0 0 0 0 0 0 0 0 0 0 1 1 1 0 0 0 0 0 0 0 0 0 0 0 0 0 0 0 0 0 0 0 0 0 0 0
0 0 0 0 0 0 0 0 0 0 0 0 0 0 0 0 0 0 0 0 0 0 0 0 0 0 0 0 0 0 0 0 0 0 0 0 0 0 0 0 0 0 0 0 0 0 0 0 0
0 0 0 0 0 0 0 0 0 0 0 0 0 0 0 0 0 0 0 0 0 0 0 0 0 0 0 0 0 0 0 0 0 0 0 0 0 0 0 0 0 0 0 0 0 0 0 0 0
0 0 0 0 0 0 0 0 0 0 0 0 0 0 0 0 0 0 0 0 0 0 0 0 0 0 0 0 0 0 0 0 0 0 0 0 0 0 0 0 0 0 0 0 0 0 0 0 0
0 0 0 0 0 0 0 0 0 0 0 0 0 0 0 0 0 0 0 0 0 0 0 0 0 0 0 0 0 0 0 0 0 0 0 0 0 0 0 0 0 0 0 0 0 0 0 0 0
0 0 0 0 0 0 0 0 0 0 0 0 0 0 0 0 0 0 0 0 0 0 0 0 0 0 0 0 0 0 0 0 0 0 0 0 0 0 0 0 0 0 0 0 0 0 0 0 0
0 0 0 0 0 0 0 0 0 0 0 0 0 0 0 0 0 0 0 0 0 0 0 0 0 0 0 0 0 0 0 0 0 0 0 0 0 0 0 0 0 0 0 0 0 0 0 0 0
0 0 0 0 0 0 0 0 0 0 0 0 0 0 0 0 0 0 0 0 0 0 0 0 0 0 0 0 0 0 0 0 0 0 0 0 0 0 0 0 0 0 0 0 0 0 0 0 0
Wind_Speed
10 8 5 5 7 5 3 3 2 2 3 3 3 1 1 2 1 5 6 15 17 18 18 17 13 14 14 14 14 14 14 13 13 12 11 11 10 9 9 8 8 9 9 9 9 9 9 9 10
6 4 6 6 7 1 4 2 1 3 4 4 4 2 2 3 5 6 9 15 18 18 18 17 16 15 15 14 14 14 13 13 12 12 11 10 10 9 9 8 8 9 9 8 8 9 9 9 9
5 6 6 6 3 3 4 4 3 3 5 5 4 1 2 4 4 6 10 17 18 17 16 17 17 15 15 14 14 13 13 13 12 11 11 10 9 8 8 8 8 8 8 8 8 8 8 8 8
5 6 6 7 1 3 3 3 1 4 5 3 3 4 4 4 2 7 15 18 18 17 16 18 16 16 15 14 14 13 13 12 12 11 10 9 9 8 8 7 7 7 7 7 7 7 7 7 7
6 6 7 4 2 4 2 3 0 2 3 3 3 3 5 3 4 12 17 18 18 17 16 19 16 15 15 14 14 13 12 12 11 10 9 8 8 7 7 7 7 7 6 6 6 6 6 6 6
6 6 6 1 4 3 3 2 1 1 2 2 3 3 6 5 9 14 16 16 16 16 15 17 16 15 14 13 13 12 12 11 10 10 9 8 7 6 6 6 6 6 5 5 5 5 5 5 4
6 5 3 1 2 3 4 2 1 0 2 1 1 2 6 7 9 13 15 15 15 15 14 15 15 14 13 12 12 12 11 10 9 9 8 7 6 6 5 5 5 5 4 4 4 4 4 4 3
5 6 3 1 0 4 4 1 2 2 2 2 1 1 5 8 10 12 14 14 14 14 14 13 13 12 12 12 12 11 10 9 8 8 7 7 6 6 5 6 5 4 4 4 3 3 3 3 3
6 7 1 2 2 3 2 1 2 0 2 2 1 3 6 12 12 13 14 13 13 13 12 13 13 11 10 11 12 11 10 9 9 9 8 7 6 6 7 5 6 4 3 3 3 3 3 4 5
6 5 3 4 5 5 2 2 0 3 4 3 4 5 10 14 13 14 14 15 14 13 12 11 11 10 9 8 9 7 8 8 7 5 6 5 3 2 2 8 4 3 3 4 4 3 5 7 5
5 5 4 3 4 5 4 1 1 5 3 0 2 7 11 12 12 12 12 12 13 12 12 11 10 10 9 6 6 4 3 4 5 5 5 3 3 3 2 3 4 3 4 4 5 6 4 3 2
6 5 6 5 4 5 4 2 1 2 3 3 2 6 10 12 12 11 11 12 12 12 11 11 10 9 7 6 5 5 4 4 4 5 4 3 2 2 2 1 1 1 1 1 1 1 2 2 3
8 5 3 3 3 2 2 1 1 1 2 2 4 7 9 10 10 10 10 10 11 11 11 10 10 9 8 6 4 5 4 4 4 3 3 2 2 2 2 1 0 1 0 1 1 1 2 2 3
4 5 5 4 3 2 3 3 3 2 2 4 5 7 8 8 9 9 10 10 11 11 11 10 10 9 8 6 5 4 4 3 2 3 3 3 2 2 1 2 1 0 0 0 1 1 2 2 2
6 8 6 5 4 3 4 6 4 4 4 4 4 5 6 7 8 8 9 10 10 10 10 10 9 9 8 7 6 5 4 4 3 3 3 3 3 3 2 2 1 1 1 1 0 1 2 2 3
8 9 6 5 4 4 8 3 7 5 5 5 4 5 5 6 6 6 8 9 9 9 9 9 9 9 8 6 5 4 4 4 3 3 3 3 3 3 2 2 2 2 1 1 1 1 2 2 3
9 6 5 1 4 4 7 3 6 6 6 5 5 5 5 6 7 6 7 8 8 9 9 9 8 9 8 7 6 5 4 4 4 3 3 4 4 4 2 2 2 1 1 0 1 1 2 2 3
5 7 6 5 2 6 7 4 4 7 7 6 6 5 5 6 8 7 7 8 8 8 9 9 9 8 8 7 5 4 5 4 4 4 4 4 4 4 2 3 3 1 1 1 1 1 1 3 3
9 10 9 5 0 6 7 5 4 7 7 7 7 6 6 6 8 8 9 9 9 9 9 9 9 8 6 5 5 5 5 4 4 4 5 5 4 4 2 2 3 0 1 1 1 2 1 2 3
10 10 8 1 2 5 5 6 5 7 8 7 8 8 8 8 9 9 10 10 9 9 9 9 9 9 7 5 3 3 4 4 4 4 5 5 4 4 3 1 2 1 1 1 0 2 3 2 2
9 8 8 5 2 6 6 6 7 7 8 8 8 8 8 10 10 11 11 11 11 10 10 9 8 8 7 6 5 5 4 4 5 5 5 4 4 4 2 2 1 1 2 1 1 2 2 3 2
7 3 5 5 7 3 4 6 6 8 9 10 10 9 10 10 11 11 12 12 11 10 9 9 8 8 7 7 6 7 5 5 5 4 4 5 4 3 3 3 2 2 2 1 3 0 2 3 3
4 1 4 6 7 7 5 8 2 7 8 10 11 11 11 12 12 12 12 12 11 11 10 9 9 8 8 6 7 6 6 5 5 5 5 4 4 4 3 3 3 3 2 1 2 1 3 3 4
4 5 5 7 8 6 2 7 1 3 6 8 10 11 12 13 12 12 12 12 11 11 10 10 9 8 8 7 7 6 5 5 5 5 5 5 4 4 4 4 3 3 2 2 2 2 3 3 3
8 8 6 5 5 2 2 6 3 2 3 6 10 12 13 13 13 13 13 14 13 13 12 11 11 9 9 8 7 7 6 7 6 6 5 4 4 4 5 4 3 2 2 2 2 3 3 3 3
8 9 8 7 6 4 2 4 3 4 4 6 9 12 13 14 13 14 14 14 13 13 13 12 12 11 10 9 8 7 7 6 5 5 4 4 3 3 4 4 3 3 3 3 3 4 3 3 4
6 7 7 9 8 8 3 1 3 5 7 8 10 12 14 14 15 15 15 15 15 14 13 13 13 11 11 10 9 8 7 6 4 5 5 4 3 3 5 5 4 4 4 3 4 3 3 3 5
7 5 5 7 7 7 4 3 1 5 8 11 12 13 14 14 15 15 15 15 14 14 14 13 13 12 11 11 10 8 8 7 6 6 5 4 4 4 5 5 5 5 5 5 5 5 4 4 4
8 8 8 7 7 8 6 2 4 2 7 11 12 13 14 15 15 15 14 15 14 14 14 13 13 13 12 12 11 9 9 8 8 7 7 6 6 6 6 6 5 5 5 5 5 5 4 6 5
10 10 9 8 7 7 8 2 6 2 5 8 10 12 13 14 15 15 15 14 14 15 15 14 14 14 13 12 11 11 10 9 9 8 8 7 7 7 7 6 6 6 6 6 6 6 6 6 6
Wind_Direction
193 209 238 248 240 229 77 74 56 117 111 105 131 139 135 90 36 74 114 151 148 147 141 148 147 145 142 140 139 138 137 137 136 135 134 131 128 123 118 113 106 101 98 96 94 93 92 93 95
197 217 239 244 258 215 98 72 65 57 84 125 144 158 144 95 58 96 139 149 150 148 147 152 145 147 145 143 141 139 138 137 137 137 135 134 131 128 122 116 109 104 101 101 99 96 93 92 94
208 238 261 253 263 349 62 64 55 91 127 156 152 138 53 84 103 129 146 152 152 147 147 141 150 151 149 147 144 142 141 139 139 138 137 135 132 128 122 116 111 108 105 105 102 98 95 91 93
223 227 237 248 166 53 20 32 62 144 144 164 171 130 97 62 125 145 148 154 151 150 152 144 156 154 152 150 148 146 145 144 143 141 140 138 133 130 123 117 111 109 106 104 103 100 97 93 92
241 254 238 215 97 71 37 12 275 187 147 160 188 142 107 82 130 145 150 154 154 155 152 147 158 156 155 153 151 150 149 148 146 144 143 141 136 132 129 124 117 113 110 106 105 104 99 94 92
238 247 247 190 91 82 71 36 231 156 142 146 183 149 96 113 137 147 152 156 156 155 152 145 157 159 157 156 156 154 153 151 150 150 149 147 144 141 135 133 130 126 120 117 114 111 108 100 91
273 270 281 343 80 95 59 35 8 341 177 130 220 141 114 131 143 151 153 156 156 155 150 152 159 161 160 159 160 159 157 156 157 155 154 152 149 147 143 137 134 132 126 126 128 124 120 112 101
290 270 229 197 334 75 69 49 33 321 87 61 261 192 131 139 148 149 153 157 158 158 156 157 162 160 167 165 164 163 161 161 159 158 158 157 161 165 164 176 149 142 141 148 154 151 146 139 137
262 254 238 25 343 38 59 314 98 45 136 140 81 32 104 138 152 154 158 160 162 162 162 165 161 162 171 168 158 167 166 164 168 169 166 187 192 174 177 139 126 154 166 173 176 172 176 188 180
249 266 24 7 330 329 345 306 246 202 191 170 138 109 128 147 162 167 167 166 167 167 168 166 165 161 172 169 157 174 177 165 190 169 176 192 166 177 160 109 140 166 192 198 184 182 204 227 202
248 286 335 325 321 313 295 270 235 253 226 157 159 147 151 159 170 176 172 171 168 168 171 168 167 166 174 165 167 170 172 163 181 172 183 180 181 180 172 148 162 184 204 211 175 199 218 226 250
252 271 286 300 316 297 294 274 227 283 20 42 119 154 160 167 172 178 173 172 169 174 175 172 165 170 175 170 169 171 176 175 177 165 193 174 186 185 154 174 171 177 202 224 242 234 229 256 250
241 268 282 281 277 291 260 219 240 79 68 113 143 159 169 174 172 175 171 171 168 174 172 169 169 169 171 171 184 172 180 174 160 154 167 187 179 173 154 163 187 237 226 198 228 257 247 250 249
277 274 270 257 238 208 215 177 190 110 113 135 153 163 168 172 175 174 170 169 171 176 172 167 172 170 173 174 176 169 174 162 157 159 158 179 165 147 163 167 134 202 132 29 271 250 241 247 246
260 257 236 205 206 189 228 203 166 128 149 149 149 158 162 168 175 177 172 173 173 174 171 170 171 169 174 176 177 169 168 159 159 149 151 159 158 143 159 137 147 103 94 120 242 269 272 257 244
236 240 239 161 199 182 247 253 124 148 166 165 166 174 175 171 175 175 170 169 171 170 168 171 171 165 169 167 170 167 164 153 151 149 147 148 141 151 170 142 110 109 125 145 183 251 273 283 278
215 262 303 172 185 208 246 285 135 165 177 179 187 192 184 168 172 173 171 168 167 165 165 163 162 161 161 158 161 155 145 149 152 150 147 144 150 153 159 112 95 148 124 52 300 54 311 305 307
313 308 305 305 163 232 251 258 163 181 193 192 193 198 189 182 179 172 171 162 159 158 159 158 155 155 157 154 151 144 145 153 149 144 134 142 146 148 150 131 114 151 114 77 34 358 333 309 308
298 295 300 319 28 248 259 255 199 189 196 195 192 191 190 190 170 168 168 163 159 159 159 158 155 154 159 157 164 159 159 156 152 149 143 152 147 140 152 125 129 186 86 22 329 308 271 292 321
274 282 291 283 170 262 271 260 212 193 199 198 192 189 190 177 164 163 165 163 163 166 167 162 164 161 165 156 158 154 140 155 143 141 141 158 156 165 170 158 187 134 145 165 307 310 311 326 330
277 290 309 310 239 230 265 231 186 185 191 189 190 191 188 182 175 169 171 171 169 171 175 168 164 162 162 157 159 147 148 167 159 159 160 160 167 176 172 181 217 181 231 146 253 280 296 314 311
291 335 293 270 261 267 263 292 172 183 191 193 193 187 186 181 177 171 171 172 172 173 173 167 164 161 162 175 176 177 181 178 162 170 154 159 174 184 183 192 196 227 252 174 238 130 293 293 300
324 326 265 264 271 278 231 281 130 175 203 198 192 186 182 179 179 176 173 172 171 171 169 163 163 161 166 175 169 184 188 171 162 167 149 177 166 184 189 192 200 215 238 234 294 261 283 288 307
165 201 218 235 252 266 334 289 308 172 213 193 185 185 181 176 177 177 173 171 172 170 168 163 163 164 166 173 172 187 176 172 169 180 170 191 179 186 180 193 203 220 235 212 234 252 239 287 313
217 249 259 246 244 318 63 276 344 84 183 188 180 178 179 177 175 174 173 171 171 173 172 170 170 168 171 174 177 179 177 177 182 195 186 210 192 186 172 191 202 218 214 220 233 234 270 259 266
227 262 282 301 312 323 190 276 43 109 149 175 173 172 176 177 176 175 175 173 174 175 175 175 175 175 176 177 177 177 182 194 184 192 203 199 212 185 159 188 200 208 211 220 220 246 234 246 261
232 245 286 281 279 282 284 266 151 160 169 173 172 172 176 178 178 178 178 178 180 181 180 180 177 178 181 180 177 182 189 198 179 175 207 201 194 184 183 196 200 203 210 227 235 250 252 246 252
273 270 237 263 285 285 284 269 66 173 180 177 179 179 178 179 180 181 181 183 184 183 182 183 181 183 185 184 187 183 186 188 187 199 197 196 194 197 196 200 203 206 208 214 234 238 222 243 247
199 220 244 262 279 290 297 336 64 169 185 185 184 183 181 182 182 181 182 184 184 184 182 185 185 186 188 190 190 187 188 188 191 197 194 191 196 193 204 208 211 214 216 217 226 249 239 243 250
241 240 232 249 255 259 283 307 100 139 179 183 184 182 183 184 183 183 184 184 185 187 187 187 189 191 192 190 189 190 191 191 196 196 195 193 195 201 204 211 217 222 222 223 230 242 244 246 251